Simultaneous Nadir Overpasses (SNOs) Predictions

Prediction of SNOs between FY3D and TERRA Satellite Orbit:

Table of predicted SNOs for the next 14.0 days since TLE Epoch: 10/31/2025
Index Date (FY3D) Time (FY3D) Lat,Lon (FY3D) SZA (FY3D ) Date (TERRA) Time (TERRA) Lat,Lon (TERRA) SZA (TERRA ) Distance(km) Time Diff (sec)
1 10/31/2025 23:03:43 78.39,-165.71 92.78 10/31/2025 23:04:37 78.40,-165.72 92.79 0.49 54
2 10/31/2025 23:54:27 -78.36, 1.77 87.24 10/31/2025 23:53:57 -78.35, 1.72 87.25 2.00 30
3 11/03/2025 09:25:06 -78.40,-141.07 86.44 11/03/2025 09:25:58 -78.40,-141.06 86.44 0.24 52
4 11/03/2025 10:15:50 78.38, 26.38 93.55 11/03/2025 10:15:18 78.36, 26.37 93.53 2.87 32
5 11/05/2025 19:46:29 78.43,-116.50 94.33 11/05/2025 19:47:19 78.39,-116.52 94.29 4.33 50
6 11/05/2025 20:37:12 -78.36, 51.22 85.72 11/05/2025 20:36:38 -78.39, 51.13 85.71 3.28 34
7 11/08/2025 06:07:51 -78.42, -91.69 84.97 11/08/2025 06:08:38 -78.44, -91.65 84.94 3.19 47
8 11/08/2025 06:58:35 78.40, 75.75 95.03 11/08/2025 06:57:58 78.39, 75.78 95.02 0.65 37
9 11/10/2025 16:29:13 78.42, -66.97 95.73 11/10/2025 16:29:58 78.43, -67.11 95.74 3.30 45
10 11/10/2025 17:19:57 -78.39, 100.53 84.30 11/10/2025 17:19:17 -78.42, 100.54 84.26 4.10 40
11 11/13/2025 02:50:35 -78.45, -42.47 83.59 11/13/2025 02:51:16 -78.44, -42.45 83.60 1.81 41



Historial Predications of SNOs between FY3D and TERRA
